STARLINK-35239 (65623 NORAD) Tracking and Keplerian Element Data

This shows tracking and keplerian element data for the satellite.

Feedback or suggestion? Click here.




ElementValue
Catalog65623
NameSTARLINK-35239
Epoch Orbit1556
Epoch Day354.19273884
Epoch Year2025
RAAN316.0622
Inclination53.1609
Eccentricity0.0001766
Argument of Perigee93.2499
Mean Anonmoly266.8704
Mean Motion15.30211831
Decay Rate0.00023242
L11 65623U 25210B 25354.19273884 .00023242 00000+0 79409-3 0 9997
L22 65623 53.1609 316.0622 0001766 93.2499 266.8704 15.30211831 15569



Live tracking and technical data element details for STARLINK-35239 (NORAD 65623). STARLINK-35239 can be tracked NOW for your location showing map with azimuth and elevation plus other details from your city location.







IsCatalogInMostPopularTable: catalog: 65623, numindb: 4
Update: records affected: 1



GetName: 65623 STARLINK-35239

Hit Count: updated at: Sun, 08 Feb 2026 17:59:41 GMT